User: anonymous   Login
Location: Goodsell Observatory
(44.4617°N, 93.1522°W)
Time: 02:12:25
(UTC-06:00)
Language:

Hubble Space Telescope - Orbit

View from above orbital plane
View from above orbital plane
View from above satellite
View from above satellite

Ground track
Ground track

The orbit data is extracted from the following two-line orbital elements,

1 20580U 90037B   16339.11968311  .00000705  00000-0  32728-4 0  9994
2 20580  28.4730 216.3326 0002760 228.6206 131.4136 15.08613016260799
Epoch (UTC): 04 December 2016 02:52:20
Eccentricity: 0.0002760
inclination: 28.4730°
perigee height: 538 km
apogee height: 542 km
right ascension of ascending node: 216.3326°
argument of perigee: 228.6206°
revolutions per day: 15.08613016
mean anomaly at epoch: 131.4136°
orbit number at epoch: 26079

The dashed part of the orbit path shows where the satellite is in the earth's shadow,  

DLR